User: anonymous   Login
Location: Newark
(7.1028°S, 35.3258°W)
Time: 10:21:03
(UTC+00:00)
Language:

A-11 Canister half - Orbit

View from above orbital plane
View from above orbital plane
View from above satellite
View from above satellite

Ground track
Ground track

The orbit data is extracted from the following two-line orbital elements,

1    53U 60009E   20048.08450430  .00000029  00000-0  11327-2 0  9998
2    53  47.2747 273.2713 0100021  82.0398 279.1728 12.17240349653788
Epoch (UTC): 17 February 2020 02:01:41
Eccentricity: 0.0100021
inclination: 47.2747°
perigee height: 1525 km
apogee height: 1684 km
right ascension of ascending node: 273.2713°
argument of perigee: 82.0398°
revolutions per day: 12.17240349
mean anomaly at epoch: 279.1728°
orbit number at epoch: 65378

The dashed part of the orbit path shows where the satellite is in the earth's shadow,  

DLR